timestamp,surface_pressure_avg,surface_temp_avg,battery_voltage,lat,long
2023-08-29 00:09:00+00:00,305.6029,19.4,12.25,47.84626,-54.09684
2023-08-29 00:19:00+00:00,294.4998,19.4,12.25,47.84626,-54.09684
2023-08-29 00:29:00+00:00,288.5031,19.4,12.25,47.84626,-54.09684
2023-08-29 00:39:00+00:00,281.7414,19.4,12.25,47.84626,-54.09684
2023-08-29 00:49:00+00:00,272.1697,19.4,12.25,47.84626,-54.09684
2023-08-29 00:59:00+00:00,266.9748,19.4,12.25,47.84626,-54.09684
2023-08-29 01:09:00+00:00,266.6331,19.4,12.25,47.84626,-54.09684
2023-08-29 01:19:00+00:00,260.3381,19.4,12.17,47.84626,-54.09684
2023-08-29 01:29:00+00:00,250.5631,19.4,12.17,47.84626,-54.09684
2023-08-29 01:39:00+00:00,244.6498,19.39,12.17,47.84626,-54.09684
2023-08-29 01:49:00+00:00,242.1714,19.37,12.17,47.84626,-54.09684
2023-08-29 01:59:00+00:00,234.2381,19.35,12.17,47.84626,-54.09684
2023-08-29 02:09:00+00:00,225.3914,19.32,12.17,47.84626,-54.09684
2023-08-29 02:19:00+00:00,222.0114,19.3,12.17,47.84626,-54.09684
2023-08-29 02:29:00+00:00,217.7848,19.3,12.17,47.84626,-54.09684
2023-08-29 02:39:00+00:00,210.0431,19.3,12.17,47.84626,-54.09684
2023-08-29 02:49:00+00:00,207.4281,19.3,12.17,47.84626,-54.09684
2023-08-29 02:59:00+00:00,208.6964,19.3,12.17,47.84626,-54.09684
2023-08-29 03:09:00+00:00,203.7314,19.29,12.17,47.84626,-54.09684
2023-08-29 03:19:00+00:00,197.9465,19.3,12.17,47.84626,-54.09684
2023-08-29 03:29:00+00:00,197.4597,19.3,12.17,47.84626,-54.09684
2023-08-29 03:39:00+00:00,199.7131,19.3,12.17,47.84626,-54.09684
2023-08-29 03:49:00+00:00,195.9331,19.3,12.17,47.84626,-54.09684
2023-08-29 03:59:00+00:00,190.0464,19.3,12.17,47.84626,-54.09684
2023-08-29 04:09:00+00:00,191.1631,19.3,12.17,47.84626,-54.09684
2023-08-29 04:19:00+00:00,195.8381,19.3,12.17,47.84626,-54.09684
2023-08-29 04:29:00+00:00,192.9815,19.33,12.17,47.84626,-54.09684
2023-08-29 04:39:00+00:00,188.8047,19.37,12.17,47.84626,-54.09684
2023-08-29 04:49:00+00:00,193.2831,19.37,12.17,47.84626,-54.09684
2023-08-29 04:59:00+00:00,197.2181,19.3,12.17,47.84626,-54.09684
2023-08-29 05:09:00+00:00,193.7265,19.3,12.17,47.84626,-54.09684
2023-08-29 05:19:01+00:00,195.3548,19.3,12.17,47.84626,-54.09684
2023-08-29 05:29:01+00:00,204.1098,19.34,12.17,47.84626,-54.09684
2023-08-29 05:39:01+00:00,208.6564,19.3,12.17,47.84626,-54.09684
2023-08-29 05:49:01+00:00,208.8098,19.32,12.17,47.84626,-54.09684
2023-08-29 05:59:01+00:00,215.9414,19.3,12.17,47.84626,-54.09684
2023-08-29 06:09:01+00:00,226.6114,19.3,12.17,47.84626,-54.09684
2023-08-29 06:19:00+00:00,227.1981,19.3,12.17,47.84626,-54.09684
2023-08-29 06:29:00+00:00,229.6981,19.3,12.17,47.84626,-54.09684
2023-08-29 06:39:00+00:00,239.5598,19.3,12.17,47.84626,-54.09684
2023-08-29 06:49:00+00:00,248.1114,19.3,12.17,47.84626,-54.09684
2023-08-29 06:59:00+00:00,250.4264,19.3,12.17,47.84626,-54.09684
2023-08-29 07:09:00+00:00,254.0164,19.3,12.17,47.84626,-54.09684
2023-08-29 07:19:00+00:00,265.9714,19.3,12.17,47.84626,-54.09684
2023-08-29 07:29:00+00:00,277.348,19.3,12.17,47.84626,-54.09684
2023-08-29 07:39:00+00:00,281.0547,19.3,12.17,47.84626,-54.09684
2023-08-29 07:49:00+00:00,287.3814,19.28,12.17,47.84626,-54.09684
2023-08-29 07:59:00+00:00,294.5547,19.26,12.17,47.84626,-54.09684
2023-08-29 08:09:00+00:00,300.1996,19.27,12.17,47.84626,-54.09684
2023-08-29 08:19:00+00:00,298.7746,19.23,12.17,47.84626,-54.09684
2023-08-29 08:29:00+00:00,302.5181,19.26,12.17,47.84626,-54.09684
2023-08-29 08:39:00+00:00,306.5513,19.27,12.17,47.84626,-54.09684
2023-08-29 08:49:00+00:00,312.0964,19.25,12.17,47.84626,-54.09684
2023-08-29 08:59:00+00:00,311.118,19.28,12.17,47.84626,-54.09684
2023-08-29 09:09:00+00:00,316.4979,19.3,12.17,47.84626,-54.09684
2023-08-29 09:19:00+00:00,323.5164,19.3,12.17,47.84626,-54.09684
2023-08-29 09:29:00+00:00,327.6879,19.3,12.17,47.84626,-54.09684
2023-08-29 09:39:00+00:00,324.1413,19.29,12.17,47.84626,-54.09684
2023-08-29 09:49:00+00:00,325.938,19.3,12.17,47.84626,-54.09684
2023-08-29 09:59:00+00:00,326.6263,19.3,12.17,47.84626,-54.09684
2023-08-29 10:09:00+00:00,327.3897,19.3,12.17,47.84626,-54.09684
2023-08-29 10:19:00+00:00,325.448,19.3,12.33,47.84626,-54.09684
2023-08-29 10:29:00+00:00,326.7513,19.3,12.33,47.84626,-54.09684
2023-08-29 10:39:00+00:00,327.4781,19.29,12.33,47.84626,-54.09684
2023-08-29 10:49:00+00:00,322.8747,19.27,12.33,47.84626,-54.09684
2023-08-29 10:59:00+00:00,317.1464,19.2,12.33,47.84626,-54.09684
2023-08-29 11:09:00+00:00,316.6829,19.19,12.33,47.84626,-54.09684
2023-08-29 11:19:00+00:00,317.7463,19.1,12.25,47.84626,-54.09684
2023-08-29 11:29:00+00:00,311.9696,19.1,12.25,47.84626,-54.09684
2023-08-29 11:39:00+00:00,308.0563,19.06,12.25,47.84626,-54.09684
2023-08-29 11:49:00+00:00,307.578,19.07,12.25,47.84626,-54.09684
2023-08-29 11:59:00+00:00,303.4913,19.1,12.25,47.84626,-54.09684
2023-08-29 12:09:00+00:00,294.7981,19.1,12.25,47.84626,-54.09684
2023-08-29 12:19:00+00:00,289.5364,19.1,12.41,47.84626,-54.09684
2023-08-29 12:29:00+00:00,288.0831,19.1,12.41,47.84626,-54.09684
2023-08-29 12:39:00+00:00,279.6431,19.15,12.41,47.84626,-54.09684
2023-08-29 12:49:00+00:00,267.0731,19.19,12.41,47.84626,-54.09684
2023-08-29 12:59:00+00:00,262.8347,19.2,12.41,47.84626,-54.09684
2023-08-29 13:09:00+00:00,260.0348,19.2,12.41,47.84626,-54.09684
2023-08-29 13:19:00+00:00,251.1248,19.2,12.57,47.84626,-54.09684
2023-08-29 13:29:00+00:00,241.9831,19.2,12.57,47.84626,-54.09684
2023-08-29 13:39:00+00:00,239.5864,19.23,12.57,47.84626,-54.09684
2023-08-29 13:49:00+00:00,235.7348,19.27,12.57,47.84626,-54.09684
2023-08-29 13:59:00+00:00,224.0314,19.25,12.57,47.84626,-54.09684
2023-08-29 14:09:00+00:00,217.1514,19.25,12.57,47.84626,-54.09684
2023-08-29 14:19:00+00:00,217.8098,19.27,12.65,47.84626,-54.09684
2023-08-29 14:29:00+00:00,211.1198,19.3,12.65,47.84626,-54.09684
2023-08-29 14:39:00+00:00,205.1248,19.4,12.65,47.84626,-54.09684
2023-08-29 14:49:00+00:00,204.3081,19.5,12.65,47.84626,-54.09684
2023-08-29 14:59:00+00:00,197.5464,19.6,12.65,47.84626,-54.09684
2023-08-29 15:09:00+00:00,190.6998,19.6,12.65,47.84626,-54.09684
2023-08-29 15:19:00+00:00,191.3015,19.6,12.65,47.84626,-54.09684
2023-08-29 15:29:00+00:00,191.9431,19.6,12.65,47.84626,-54.09684
2023-08-29 15:39:00+00:00,186.9481,19.6,12.65,47.84626,-54.09684
2023-08-29 15:49:00+00:00,181.7248,19.6,12.65,47.84626,-54.09684
2023-08-29 15:59:00+00:00,183.0948,19.6,12.65,47.84626,-54.09684
2023-08-29 16:09:00+00:00,184.0148,19.57,12.65,47.84626,-54.09684
2023-08-29 16:19:00+00:00,182.5031,19.55,12.65,47.84626,-54.09684
2023-08-29 16:29:00+00:00,184.4964,19.5,12.65,47.84626,-54.09684
2023-08-29 16:39:00+00:00,186.9982,19.4,12.65,47.84626,-54.09684
2023-08-29 16:49:00+00:00,187.6781,19.4,12.65,47.84626,-54.09684
2023-08-29 16:59:00+00:00,187.0081,19.4,12.65,47.84626,-54.09684
2023-08-29 17:09:00+00:00,190.9264,19.4,12.65,47.84626,-54.09684
2023-08-29 17:19:00+00:00,196.1731,19.4,12.57,47.84626,-54.09684
2023-08-29 17:29:00+00:00,198.5981,19.2,12.57,47.84626,-54.09684
2023-08-29 17:39:00+00:00,203.4931,19.1,12.57,47.84626,-54.09684
2023-08-29 17:49:00+00:00,209.8681,19.13,12.57,47.84626,-54.09684
2023-08-29 17:59:00+00:00,211.3614,19.2,12.57,47.84626,-54.09684
2023-08-29 18:09:00+00:00,215.5948,19.2,12.57,47.84626,-54.09684
2023-08-29 18:19:00+00:00,225.8497,19.2,12.49,47.84626,-54.09684
2023-08-29 18:29:00+00:00,232.1614,19.2,12.49,47.84626,-54.09684
2023-08-29 18:39:00+00:00,234.1781,19.1,12.49,47.84626,-54.09684
2023-08-29 18:49:00+00:00,238.4714,19.1,12.49,47.84626,-54.09684
2023-08-29 18:59:00+00:00,248.1848,19.1,12.49,47.84626,-54.09684
2023-08-29 19:09:00+00:00,257.1164,19.15,12.49,47.84626,-54.09684
2023-08-29 19:19:00+00:00,262.6198,19.19,12.41,47.84626,-54.09684
2023-08-29 19:29:00+00:00,268.7647,19.2,12.41,47.84626,-54.09684
2023-08-29 19:39:00+00:00,277.913,19.2,12.41,47.84626,-54.09684
2023-08-29 19:49:00+00:00,287.1398,19.18,12.41,47.84626,-54.09684
2023-08-29 19:59:00+00:00,293.1096,19.0,12.41,47.84626,-54.09684
2023-08-29 20:09:00+00:00,299.5013,19.0,12.41,47.84626,-54.09684
2023-08-29 20:19:00+00:00,308.9697,19.09,12.41,47.84626,-54.09684
2023-08-29 20:29:00+00:00,323.2546,18.97,12.41,47.84626,-54.09684
2023-08-29 20:39:00+00:00,332.2763,18.88,12.41,47.84626,-54.09684
2023-08-29 20:49:00+00:00,338.4562,18.99,12.41,47.84626,-54.09684
2023-08-29 20:59:00+00:00,341.9214,19.0,12.41,47.84626,-54.09684
2023-08-29 21:09:00+00:00,347.6546,18.84,12.41,47.84626,-54.09684
2023-08-29 21:19:00+00:00,350.8446,18.89,12.41,47.84626,-54.09684
2023-08-29 21:29:00+00:00,355.1796,19.0,12.41,47.84626,-54.09684
2023-08-29 21:39:00+00:00,361.3062,19.02,12.41,47.84626,-54.09684
2023-08-29 21:49:00+00:00,365.8846,18.9,12.41,47.84626,-54.09684
2023-08-29 21:59:00+00:00,364.968,18.99,12.41,47.84626,-54.09684
2023-08-29 22:09:00+00:00,366.2112,19.08,12.41,47.84626,-54.09684
2023-08-29 22:19:01+00:00,369.7762,19.1,12.33,47.84626,-54.09684
2023-08-29 22:29:01+00:00,374.7095,19.1,12.33,47.84626,-54.09684
2023-08-29 22:39:01+00:00,373.57800000000003,19.16,12.33,47.84626,-54.09684
2023-08-29 22:49:01+00:00,371.8679,19.2,12.33,47.84626,-54.09684
2023-08-29 22:59:01+00:00,374.6013,19.2,12.33,47.84626,-54.09684
2023-08-29 23:09:01+00:00,373.8162,19.2,12.33,47.84626,-54.09684
2023-08-29 23:19:00+00:00,369.2913,19.2,12.33,47.84626,-54.09684
2023-08-29 23:29:00+00:00,364.8296,19.22,12.33,47.84626,-54.09684
2023-08-29 23:39:00+00:00,363.4896,19.3,12.33,47.84626,-54.09684
2023-08-29 23:49:00+00:00,361.81300000000016,19.3,12.33,47.84626,-54.09684
2023-08-29 23:59:00+00:00,355.8763,19.37,12.33,47.84626,-54.09684
